Location: Caltech
(34.1382°N, 118.1253°W)
Time: 21:10:31
(UTC-07:00)

Cosmos 1606 - Visible Passes

Search period start: 26 June 2016 00:00
Search period end: 06 July 2016 00:00
Orbit: 507 x 535 km, 82.5° (Epoch: 25 June)

Date Brightness Start Highest point End Pass type
(mag) Time Alt. Az. Time Alt. Az. Time Alt. Az.
26 Jun 5.5 01:02:10 10° NNE 01:03:12 16° NNE 01:03:12 16° NNE visible
27 Jun 5.6 00:49:03 10° NNE 00:49:52 14° NNE 00:49:52 14° NNE visible
28 Jun 5.7 00:35:58 10° NNE 00:36:34 13° NE 00:36:34 13° NE visible
29 Jun 5.7 00:22:55 10° NNE 00:23:16 11° NE 00:23:16 11° NE visible
29 Jun 5.7 01:58:13 10° NW 01:58:23 11° NW 01:58:23 11° NW visible
30 Jun 5.8 00:09:57 10° NE 00:09:58 10° NE 00:09:58 10° NE visible
30 Jun 5.7 01:44:45 10° NNW 01:45:06 12° NW 01:45:06 12° NW visible
01 Jul 5.6 01:31:19 10° NNW 01:31:49 13° NNW 01:31:49 13° NNW visible
02 Jul 5.6 01:17:54 10° NNW 01:18:34 14° NNW 01:18:34 14° NNW visible
03 Jul 5.6 01:04:31 10° NNW 01:05:18 15° NNW 01:05:18 15° NNW visible
04 Jul 5.5 00:51:09 10° NNW 00:52:04 16° NNW 00:52:04 16° NNW visible
05 Jul 5.5 00:37:48 10° NNW 00:38:50 17° NNW 00:38:50 17° NNW visible
